• Join FlightAware (Why Join?)
  • Login
  • US Flag 
01:09AM EDT


 

Airport Tracker/Info


-or-


 

Live Flight TrackerFlight Track Log ✈ ASQ5963 ✈ 06-Sep-2013 ✈ KALB - KEWR

Flight Track Log - Related Links

Times and Time Zones

All times are in EDT time to prevent confusion due to time zone crossing. See the ASQ5963 flight status page for this flight to view local times or setup timezone preferences in your user account.

Time Position Orientation Groundspeed Altitude Reporting Facility
EDT Latitude Longitude Course Direction KTS MPH feet Rate Location/Type
06:09AM 42.7653 -73.8061 206° Southwest 144 166 1,700  Level Boston Center
06:10AM 42.8025 -73.8322 333° Northwest 195 224 4,100 2,820 Climbing Boston Center
06:11AM 42.7622 -73.8794 221° Southwest 156 180 7,100 2,760 Climbing Boston Center
06:12AM 42.5459 -73.8393 195° South  Level Estimated
06:12AM 42.6994 -73.8978 192° South 173 199 9,700  Level Boston Center
06:13AM 42.4843 -73.8794 206° Southwest  Level FlightAware Approximate
06:13AM 42.6200 -73.9242 194° South 246 283 10,800  Level Boston Center
06:14AM 42.4227 -73.9195 206° Southwest  Level FlightAware Approximate
06:14AM 42.5197 -73.9472 190° South 328 377 11,500  Level Boston Center
06:15AM 42.4275 -73.9758 193° South 381 438 12,000 240 Climbing Boston Center
06:16AM 42.3125 -74.0094 192° South 387 445 12,000  Level Boston Center
06:17AM 42.2203 -74.0381 193° South 392 451 12,000  Level Boston Center
06:18AM 42.1133 -74.0858 198° South 378 435 12,000  Level Boston Center
06:19AM 42.0189 -74.1281 198° South 363 418 12,000  Level Boston Center
06:20AM 41.9267 -74.1700 199° South 363 418 12,000 -60 Level Boston Center
06:21AM 41.8300 -74.2092 197° South 363 418 11,900 -420 Descending Boston Center
06:22AM 41.7464 -74.2236 187° South 334 384 11,200 -1,080 Descending Boston Center
06:23AM 41.6711 -74.2467 193° South 302 348 9,800 -1,320 Descending Boston Center
06:24AM 41.5975 -74.2861 202° Southwest 287 330 8,600 -1,260 Descending Boston Center
06:25AM 41.5258 -74.3283 204° Southwest 287 330 7,300 -840 Descending Boston Center
06:26AM 41.4650 -74.3625 203° Southwest 277 319 7,000 -180 Descending Boston Center
06:27AM 41.3667 -74.4333 208° Southwest 264 304 7,000  Level New York TRACON
06:28AM 41.3000 -74.4667 201° Southwest 269 310 7,000  Level New York TRACON
06:29AM 41.2333 -74.5000 201° Southwest 267 307 7,000  Level New York TRACON
06:30AM 41.1500 -74.5167 189° South 283 326 7,000  Level New York TRACON
06:31AM 41.0833 -74.5333 191° South 273 314 7,000  Level New York TRACON
06:32AM 41.0167 -74.5333 180° South 271 312 7,000  Level New York TRACON
06:33AM 40.9333 -74.5333 180° South 284 327 7,000 -480 Level New York TRACON
06:34AM 40.8667 -74.5333 180° South 281 323 6,200 -600 Descending New York TRACON
06:35AM 40.8000 -74.5333 180° South 265 305 6,000 -120 Descending New York TRACON
06:36AM 40.7333 -74.5333 180° South 266 306 6,000  Level New York TRACON
06:37AM 40.6667 -74.5000 159° South 263 303 6,000  Level New York TRACON
06:38AM 40.6000 -74.4833 169° South 269 310 6,000  Level New York TRACON
06:39AM 40.5333 -74.4500 159° South 269 310 6,000 -720 Level New York TRACON
06:40AM 40.4833 -74.4000 143° Southeast 240 276 4,700 -1,200 Descending New York TRACON
06:41AM 40.4667 -74.3500 114° Southeast 188 216 3,600 -900 Descending New York TRACON
06:42AM 40.5000 -74.3000 49° Northeast 163 188 3,000 -300 Descending New York TRACON
06:43AM 40.5333 -74.2667 37° Northeast 164 189 3,000 -360 Level New York TRACON
06:44AM 40.5833 -74.2333 27° Northeast 180 207 2,300 -720 Descending New York TRACON
06:45AM 40.6167 -74.2167 21° North 118 136 1,600 -720 Descending New York TRACON
06:46AM 40.6500 -74.2000 21° North 118 136 900 -720 Descending New York TRACON